Date String (YYYY-MM-DD hh:mm:ss) UTC,Instrument flags,Ambient pressure (hPa),Sample flow (lpm),Bypass flow (lpm),Sample temperature (°C),Ambient temperature (°C),ASC tube jacket temperature (°C),LED temperature (°C),Box temperature (°C),Sample RH (%),Span deviation,Mass concentration (μg/m³),Mass concentration (μg/m³),Mass concentration (μg/m³)
DateTimeUTC,F1_M11,P_M11,Q1_M11,Q2_M11,T1_M11,T2_M11,T3_M11,T4_M11,T5_M11,U1_M11,ZSPAN_M11,X0_M11,X2_M11,X1_M11
2022-02-07 14:00:00,,0833.4,4.99,0.00,22.4,22.2,00.0,31.4,24.1,07.1,0000.0,0000.79,0000.52,0000.43
2022-02-07 14:01:00,,0833.4,5.00,0.00,22.4,22.0,00.0,31.4,24.1,07.1,0000.0,0000.76,0000.51,0000.43
2022-02-07 14:02:00,,0833.4,5.01,0.00,22.4,21.9,00.0,31.3,24.0,07.1,0000.0,0000.79,0000.53,0000.44
2022-02-07 14:03:00,,0833.4,5.00,0.00,22.3,21.8,00.0,31.3,24.0,07.2,0000.0,0000.80,0000.53,0000.44
2022-02-07 14:04:00,,0833.5,5.00,0.00,22.3,21.7,00.0,31.3,24.0,07.1,0000.0,0000.77,0000.52,0000.44
2022-02-07 14:05:00,,0833.5,4.99,0.00,22.3,21.6,00.0,31.3,23.9,07.2,0000.0,0000.74,0000.51,0000.43
2022-02-07 14:06:00,,0833.5,5.02,0.00,22.2,21.6,00.0,31.3,23.9,07.2,0000.0,0000.89,0000.51,0000.43
2022-02-07 14:07:00,,0833.5,4.99,0.00,22.2,21.5,00.0,31.3,23.9,07.2,0000.0,0000.85,0000.49,0000.42
2022-02-07 14:08:00,,0833.6,5.00,0.00,22.2,21.4,00.0,31.3,23.8,07.3,0000.0,0000.84,0000.49,0000.42
2022-02-07 14:09:00,,0833.6,5.01,0.00,22.1,21.4,00.0,31.3,23.8,07.3,0000.0,0000.81,0000.48,0000.43
2022-02-07 14:10:00,,0833.6,4.99,0.00,22.1,21.4,00.0,31.2,23.8,07.4,0000.0,0000.74,0000.46,0000.42
2022-02-07 14:11:00,,0833.6,5.01,0.00,22.1,21.4,00.0,31.2,23.7,07.6,0000.0,0000.74,0000.46,0000.42
2022-02-07 14:12:00,,0833.6,5.00,0.00,22.1,21.9,00.0,31.2,23.8,07.5,0000.0,0000.79,0000.47,0000.42
2022-02-07 14:13:00,,0833.6,5.01,0.00,22.3,22.7,00.0,31.3,24.1,07.5,0000.0,0000.80,0000.47,0000.42
2022-02-07 14:14:00,,0833.6,5.00,0.00,22.4,23.3,00.0,31.3,24.4,07.5,0000.0,0000.81,0000.47,0000.41
2022-02-07 14:15:00,,0833.6,4.99,0.00,22.5,23.1,00.0,31.3,24.4,07.5,0000.0,0000.81,0000.47,0000.42
2022-02-07 14:16:00,,0833.6,5.01,0.00,22.5,22.7,00.0,31.3,24.3,07.5,0000.0,0000.82,0000.48,0000.41
2022-02-07 14:17:00,,0833.7,5.00,0.00,22.4,22.5,00.0,31.3,24.3,07.4,0000.0,0000.74,0000.50,0000.42
2022-02-07 14:18:00,,0833.6,5.01,0.00,22.4,22.3,00.0,31.3,24.2,07.3,0000.0,0000.77,0000.53,0000.42
2022-02-07 14:19:00,,0833.6,4.99,0.00,22.4,22.2,00.0,31.3,24.2,07.3,0000.0,0000.83,0000.55,0000.43
2022-02-07 14:20:00,,0833.5,4.99,0.00,22.4,22.0,00.0,31.3,24.1,07.3,0000.0,0000.90,0000.57,0000.44
2022-02-07 14:21:00,,0833.5,5.01,0.00,22.4,21.9,00.0,31.3,24.1,07.3,0000.0,0000.94,0000.59,0000.44
2022-02-07 14:22:00,,0833.5,5.00,0.00,22.3,21.8,00.0,31.3,24.0,07.4,0000.0,0000.99,0000.61,0000.45
2022-02-07 14:23:00,,0833.4,5.00,0.00,22.3,21.8,00.0,31.3,24.0,07.4,0000.0,0000.97,0000.61,0000.46
2022-02-07 14:24:00,,0833.5,5.00,0.00,22.3,21.7,00.0,31.3,24.0,07.5,0000.0,0000.96,0000.61,0000.46
2022-02-07 14:25:00,,0833.5,5.01,0.00,22.3,21.7,00.0,31.3,24.0,07.5,0000.0,0000.94,0000.61,0000.47
2022-02-07 14:26:00,,0833.5,4.99,0.00,22.3,21.6,00.0,31.3,23.9,07.5,0000.0,0000.94,0000.61,0000.47
2022-02-07 14:27:00,,0833.5,4.99,0.00,22.2,21.6,00.0,31.3,23.9,07.4,0000.0,0000.96,0000.62,0000.48
2022-02-07 14:28:00,,0833.4,5.01,0.00,22.2,21.5,00.0,31.3,23.9,07.3,0000.0,0000.95,0000.61,0000.48
2022-02-07 14:29:00,,0833.4,5.00,0.00,22.2,21.5,00.0,31.3,23.8,07.3,0000.0,0000.95,0000.61,0000.49
2022-02-07 14:30:00,,0833.4,4.99,0.00,22.2,21.4,00.0,31.3,23.8,07.3,0000.0,0000.88,0000.58,0000.49
2022-02-07 14:31:00,,0833.4,5.02,0.00,22.1,21.4,00.0,31.3,23.8,07.2,0000.0,0000.82,0000.56,0000.48
2022-02-07 14:32:00,,0833.4,4.99,0.00,22.1,21.5,00.0,31.2,23.8,07.0,0000.0,0000.82,0000.56,0000.48
2022-02-07 14:33:00,,0833.4,5.00,0.00,22.2,22.2,00.0,31.3,24.0,06.9,0000.0,0000.80,0000.55,0000.47
2022-02-07 14:34:00,,0833.4,4.99,0.00,22.4,23.1,00.0,31.3,24.3,06.7,0000.0,0000.73,0000.53,0000.46
2022-02-07 14:35:00,,0833.4,5.00,0.00,22.5,23.5,00.0,31.3,24.5,06.6,0000.0,0000.71,0000.51,0000.45
2022-02-07 14:36:00,,0833.4,5.01,0.00,22.6,23.2,00.0,31.4,24.5,06.5,0000.0,0000.74,0000.53,0000.46
2022-02-07 14:37:00,,0833.5,5.00,0.00,22.6,22.9,00.0,31.4,24.5,06.5,0000.0,0000.74,0000.52,0000.45
2022-02-07 14:38:00,,0833.5,5.00,0.00,22.6,22.7,00.0,31.4,24.3,06.5,0000.0,0000.73,0000.51,0000.44
2022-02-07 14:39:00,,0833.4,4.99,0.00,22.5,22.5,00.0,31.4,24.3,06.5,0000.0,0000.72,0000.52,0000.45
2022-02-07 14:40:00,,0833.4,5.00,0.00,22.5,22.3,00.0,31.4,24.2,06.5,0000.0,0000.69,0000.50,0000.44
2022-02-07 14:41:00,,0833.4,5.02,0.00,22.5,22.1,00.0,31.4,24.2,06.5,0000.0,0000.68,0000.50,0000.43
2022-02-07 14:42:00,,0833.4,4.98,0.00,22.5,22.0,00.0,31.4,24.1,06.5,0000.0,0000.71,0000.50,0000.43
2022-02-07 14:43:00,,0833.4,5.01,0.00,22.4,21.9,00.0,31.4,24.1,06.4,0000.0,0000.69,0000.49,0000.43
2022-02-07 14:44:00,,0833.4,4.99,0.00,22.4,21.8,00.0,31.4,24.1,06.5,0000.0,0000.73,0000.51,0000.44
2022-02-07 14:45:00,,0833.4,5.01,0.00,22.4,21.8,00.0,31.4,24.1,06.5,0000.0,0000.77,0000.53,0000.44
2022-02-07 14:46:00,,0833.4,4.98,0.00,22.4,21.7,00.0,31.4,24.0,06.8,0000.0,0000.82,0000.55,0000.44
2022-02-07 14:47:00,,0833.4,5.01,0.00,22.4,21.6,00.0,31.4,24.0,07.0,0000.0,0000.83,0000.54,0000.43
2022-02-07 14:48:00,,0833.4,4.99,0.00,22.3,21.6,00.0,31.4,23.9,07.3,0000.0,0000.89,0000.56,0000.43
2022-02-07 14:49:00,,0833.4,5.02,0.00,22.3,21.5,00.0,31.4,23.9,07.4,0000.0,0000.91,0000.57,0000.43
2022-02-07 14:50:00,,0833.4,5.00,0.00,22.3,21.5,00.0,31.4,23.9,07.6,0000.0,0000.93,0000.57,0000.42
2022-02-07 14:51:00,,0833.4,4.99,0.00,22.3,21.5,00.0,31.4,23.9,07.4,0000.0,0000.98,0000.57,0000.42
2022-02-07 14:52:00,,0833.5,5.00,0.00,22.3,21.5,00.0,31.4,23.9,07.3,0000.0,0001.00,0000.59,0000.42
2022-02-07 14:53:00,,0833.5,4.99,0.00,22.3,21.4,00.0,31.3,23.9,07.5,0000.0,0001.01,0000.59,0000.42
2022-02-07 14:54:00,,0833.5,5.01,0.00,22.3,21.4,00.0,31.3,23.9,07.3,0000.0,0001.11,0000.61,0000.42
2022-02-07 14:55:00,,0833.6,5.00,0.00,22.3,21.6,00.0,31.3,23.9,07.3,0000.0,0001.02,0000.58,0000.41
2022-02-07 14:56:00,,0833.6,5.00,0.00,22.3,22.5,00.0,31.4,24.2,07.9,0000.0,0001.04,0000.60,0000.43
2022-02-07 14:57:00,,0833.6,4.99,0.00,22.5,23.3,00.0,31.4,24.5,08.5,0000.0,0001.07,0000.62,0000.44
2022-02-07 14:58:00,,0833.6,5.01,0.00,22.6,23.3,00.0,31.4,24.5,08.4,0000.0,0001.09,0000.63,0000.46
2022-02-07 14:59:00,,0833.6,4.99,0.00,22.6,23.0,00.0,31.5,24.5,08.4,0000.0,0001.63,0000.64,0000.47
